Back to catalog

TITAN 3C TRANSTAGE R/B

AliveMEO
NORAD 8751·ROCKET BODY·🇺🇸 United States

Launched Mar 15, 1976 from Cape Canaveral Space Force Station

Loading…

Next Passes (next 24 hours)

TLE

FreshSource: Space-Track

Epoch: Sep 14, 2026, 12:05 UTC

1 08751U 76023F   26257.50388465 -.00000045  00000-0  00000-0 0  9990
2 08751  22.0407  41.5722 0122535 109.0912 263.5059  0.98324391184090

Track TITAN 3C TRANSTAGE R/B in real time with AllMySat

Download on the App Store